Location: Angwan Shehu
(11.2514°N, 7.4613°E)
Time: 04:38:03
(UTC+00:00)

ARIANE 5 DEB (SYLDA) - Pass Details

Date: 14 November 2019
Orbit: 271 x 12519 km, 6.8° (Epoch: 07 December)

Event Time Altitude Azimuth Distance (km) Brightness Sun altitude
Rises 17:27:36 0° 259° (W) 2,329 8.5 -6.5°
Reaches altitude 10° 17:28:59 10° 253° (WSW) 1,730 7.2 -6.9°
Maximum altitude 17:32:28 52° 174° (S) 1,078 4.4 -7.7°
Drops below altitude 10° 17:43:59 10° 101° (E) 5,478 7.3 -10.4°
Enters shadow 17:47:49 - 99° (E) 6,902 7.8 -11.3°
